World > North America > United States > Ohio > McDonald  

McDonald, OH Hourly Weather Updates

Feedback E-mail the Weather

Quick Clicks

McDonald, OH Weather Maps

°F °C°F °C
Mcdonald Weather Map
UTC Time: 6/18/2024, 22:46
Your Time:

McDonald, OH Regional Weather

Expires:202406182300;;257331
ASUS41 KCLE 182212
RWRCLE
OHIO REGIONAL WEATHER ROUNDUP
NATIONAL WEATHER SERVICE WILMINGTON, OH
600 PM EDT TUE JUN 18 2024

NOTE: "FAIR" INDICATES FEW OR NO CLOUDS BELOW 12,000 FEET WITH NO
SIGNIFICANT WEATHER AND/OR OBSTRUCTIONS TO VISIBILITY.


OHZ009>014-019>023-028>033-038-089-182300-
   NORTHEAST OHIO
  
CITY           SKY/WX    TMP DP  RH WIND       PRES   REMARKS
CLE-HOPKINS    PTSUNNY   88  74  63 S6        30.13S HX  96           
CLE-LAKEFRONT  FAIR      82  74  76 E7        30.14S                  
CUY CO. ARPT   PTSUNNY   79  75  89 SE10      30.17F                  
LORAIN-ELYRIA  FAIR      87  74  64 SE7       30.14S HX  95           
ASHTABULA      FAIR     N/A N/A N/A MISG      30.21S                  
AKRON-CANTON   PTSUNNY   86  69  56 SE9       30.18S HX  90           
WOOSTER        FAIR      89  72  56 MISG      30.17S HX  96           
MANSFIELD      FAIR      89  69  51 S9        30.17S HX  93           
YOUNGSTOWN     CLOUDY    74  71  91 NE8       30.23R THUNDER          
$$
 

SKY/WX - Weather  TMP - Temperature  DP - Dew Point  RH - Humidity
WIND - Wind Direction/Speed PRES - Barometric Pressure VSB - Visibility
WCI - Wind Chill Index E13G22 Wind - East Wind 13 mph/Gusts of 22 mph

Trending Headlines

Trending Entertainment Headlines

McDonald Radar Loop

Use the map search tool if you want to place a location marker on the radar map...

McDonald Quick Facts

National Two Day Weather Forecast


E-mail the McDonald Weather Forecast

Voice your opinion or tell us about page issues...